{"data":{"norad_id":63777,"intl_designator":"2025-091C","name":"STARLINK-33911","alt_names":[],"object_type":"PAYLOAD","status":"ACTIVE","operator":null,"country":"US","launch_date":"2025-05-02","launch_site_code":"AFETR","launch_vehicle":null,"mission":null,"orbit_class":"UNKNOWN","rcs_meters":null,"size_class":null,"mass_kg":null,"dimensions":null,"purposes":["comms"],"wikipedia_slug":null,"has_3d_model":false,"image_url":null,"decayed_at":null,"tle_current":{"epoch":"2026-05-24T22:12:28.339200Z","epoch_age_seconds":84804,"freshness":"FRESH","line1":"1 63777U 25091C   26144.92532800  .00014883  00000+0  54893-3 0  9998","line2":"2 63777  43.0029 334.8393 0001891 285.5138  74.5505 15.27599215 60642","mean_motion":15.27599215,"eccentricity":0.0001891,"inclination_deg":43.0029,"raan_deg":334.8393,"arg_perigee_deg":285.5138,"mean_anomaly_deg":74.5505,"bstar":0.00054893,"rev_number":6064,"period_min":94.265562973597,"perigee_km":481.6941206095,"apogee_km":484.2889994309,"semimajor_km":6861.1285600202,"source":"CELESTRAK","updated_at":"2026-05-25T13:38:20.132412Z"}}}